"Period start","avg(HW err(1)/warn(2) (#))","avg(Visibility (m))","avg(Weather code (#))","avg(Precip intensity (mm/h))","min(HW err(1)/warn(2) (#))","max(HW err(1)/warn(2) (#))","std(HW err(1)/warn(2) (#))","med(HW err(1)/warn(2) (#))","min(Visibility (m))","max(Visibility (m))","std(Visibility (m))","med(Visibility (m))","min(Weather code (#))","max(Weather code (#))","std(Weather code (#))","med(Weather code (#))","min(Precip intensity (mm/h))","max(Precip intensity (mm/h))","std(Precip intensity (mm/h))","med(Precip intensity (mm/h))"
2017-08-17 00:00:00,2,36664,0,0.00,2,2,0,2,22573,50000,9488,34187,0,0,0,0,0.00,0.00,0.00,0.00
2017-08-17 00:10:00,1,44048,0,0.00,0,2,1,2,31308,50000,5430,45189,0,0,0,0,0.00,0.00,0.00,0.00
2017-08-17 00:20:00,2,38292,0,0.00,0,2,1,2,26374,48669,6431,37858,0,0,0,0,0.00,0.00,0.00,0.00
2017-08-17 00:30:00,2,38312,0,0.00,0,2,1,2,30020,47227,6024,39993,0,0,0,0,0.00,0.00,0.00,0.00
2017-08-17 00:40:00,2,36739,0,0.00,2,2,0,2,26929,47254,5943,36817,0,0,0,0,0.00,0.00,0.00,0.00
2017-08-17 00:50:00,2,42008,0,0.00,2,2,0,2,32666,50000,5471,41617,0,0,0,0,0.00,0.00,0.00,0.00
2017-08-17 01:00:00,1,35426,0,0.00,0,2,1,2,16912,50000,10483,35242,0,0,0,0,0.00,0.00,0.00,0.00
2017-08-17 01:10:00,0,33730,0,0.00,0,0,0,0,22080,43165,5995,34420,0,0,0,0,0.00,0.00,0.00,0.00
2017-08-17 01:20:00,0,43883,0,0.00,0,0,0,0,35324,50000,5990,47252,0,0,0,0,0.00,0.00,0.00,0.00
2017-08-17 01:30:00,0,32591,0,0.00,0,0,0,0,22103,42605,7114,33592,0,0,0,0,0.00,0.00,0.00,0.00
2017-08-17 01:40:00,0,39814,0,0.00,0,0,0,0,21747,50000,10279,43997,0,0,0,0,0.00,0.00,0.00,0.00
2017-08-17 01:50:00,0,30408,0,0.00,0,0,0,0,15600,41459,8219,31722,0,0,0,0,0.00,0.00,0.00,0.00
2017-08-17 02:00:00,0,34005,0,0.00,0,0,0,0,27865,42565,5154,33008,0,0,0,0,0.00,0.00,0.00,0.00
2017-08-17 02:10:00,0,40222,0,0.00,0,0,0,0,26612,50000,8795,40883,0,0,0,0,0.00,0.00,0.00,0.00
2017-08-17 02:20:00,0,40636,0,0.00,0,0,0,0,20882,50000,11376,49099,0,0,0,0,0.00,0.00,0.00,0.00
2017-08-17 02:30:00,0,35876,0,0.00,0,0,0,0,18393,48311,8736,34970,0,0,0,0,0.00,0.00,0.00,0.00
2017-08-17 02:40:00,0,44131,0,0.00,0,0,0,0,39524,50000,3711,43012,0,0,0,0,0.00,0.00,0.00,0.00
2017-08-17 02:50:00,0,37607,0,0.00,0,0,0,0,28929,50000,6392,37778,0,0,0,0,0.00,0.00,0.00,0.00
2017-08-17 03:00:00,0,37670,0,0.00,0,0,0,0,26392,47012,6899,37908,0,0,0,0,0.00,0.00,0.00,0.00
2017-08-17 03:10:00,0,41428,0,0.00,0,0,0,0,28898,49904,7646,43398,0,0,0,0,0.00,0.00,0.00,0.00
2017-08-17 03:20:00,0,35170,0,0.00,0,0,0,0,23681,50000,10182,33587,0,0,0,0,0.00,0.00,0.00,0.00
2017-08-17 03:30:00,0,36173,0,0.00,0,0,0,0,24986,47494,7443,38908,0,0,0,0,0.00,0.00,0.00,0.00
2017-08-17 03:40:00,0,39332,0,0.00,0,0,0,0,30374,47329,5350,38441,0,0,0,0,0.00,0.00,0.00,0.00
2017-08-17 03:50:00,0,38074,0,0.00,0,0,0,0,32158,45079,3900,37145,0,0,0,0,0.00,0.00,0.00,0.00
2017-08-17 04:00:00,0,36860,0,0.00,0,0,0,0,28296,50000,6165,35321,0,0,0,0,0.00,0.00,0.00,0.00
2017-08-17 04:10:00,0,40735,0,0.00,0,0,0,0,32033,47167,4408,41729,0,0,0,0,0.00,0.00,0.00,0.00
2017-08-17 04:20:00,0,41644,0,0.00,0,0,0,0,25695,50000,7601,42138,0,0,0,0,0.00,0.00,0.00,0.00
2017-08-17 04:30:00,0,32501,0,0.00,0,0,0,0,27106,36844,3413,31332,0,0,0,0,0.00,0.00,0.00,0.00
2017-08-17 04:40:00,0,37265,0,0.00,0,0,0,0,27482,45207,5100,37510,0,0,0,0,0.00,0.00,0.00,0.00
2017-08-17 04:50:00,0,40390,0,0.00,0,0,0,0,31502,50000,5839,38121,0,0,0,0,0.00,0.00,0.00,0.00
2017-08-17 05:00:00,0,45419,0,0.00,0,0,0,0,38862,50000,3472,45872,0,0,0,0,0.00,0.00,0.00,0.00
2017-08-17 05:10:00,0,46984,0,0.00,0,0,0,0,44627,50000,1550,46694,0,0,0,0,0.00,0.00,0.00,0.00
2017-08-17 05:20:00,0,40652,0,0.00,0,0,0,0,32455,48468,5797,40164,0,0,0,0,0.00,0.00,0.00,0.00
2017-08-17 05:30:00,0,42732,0,0.00,0,0,0,0,28178,50000,6636,45614,0,0,0,0,0.00,0.00,0.00,0.00
2017-08-17 05:40:00,0,39500,0,0.00,0,0,0,0,31230,45251,4566,40438,0,0,0,0,0.00,0.00,0.00,0.00
2017-08-17 05:50:00,0,39095,0,0.00,0,0,0,0,27526,50000,7890,39243,0,0,0,0,0.00,0.00,0.00,0.00
2017-08-17 06:00:00,0,41523,0,0.00,0,0,0,0,34622,50000,4210,40695,0,0,0,0,0.00,0.00,0.00,0.00
2017-08-17 06:10:00,0,42304,0,0.00,0,0,0,0,36330,49638,4908,41130,0,0,0,0,0.00,0.00,0.00,0.00
2017-08-17 06:20:00,0,42232,0,0.00,0,0,0,0,37890,49953,3752,42210,0,0,0,0,0.00,0.00,0.00,0.00
2017-08-17 06:30:00,0,37318,0,0.00,0,0,0,0,31306,42429,2768,37598,0,0,0,0,0.00,0.00,0.00,0.00
2017-08-17 06:40:00,0,35855,0,0.00,0,0,0,0,29763,44741,4484,35600,0,0,0,0,0.00,0.00,0.00,0.00
2017-08-17 06:50:00,0,39599,0,0.00,0,0,0,0,32147,46386,3688,39116,0,0,0,0,0.00,0.00,0.00,0.00
2017-08-17 07:00:00,0,37030,0,0.00,0,0,0,0,28303,44390,5112,37254,0,0,0,0,0.00,0.00,0.00,0.00
2017-08-17 07:10:00,0,39154,0,0.00,0,0,0,0,31111,48802,5457,40473,0,0,0,0,0.00,0.00,0.00,0.00
2017-08-17 07:20:00,0,38784,0,0.00,0,0,0,0,34225,45237,3522,38202,0,0,0,0,0.00,0.00,0.00,0.00
2017-08-17 07:30:00,0,35311,0,0.00,0,0,0,0,24235,43918,6587,35538,0,0,0,0,0.00,0.00,0.00,0.00
2017-08-17 07:40:00,0,37581,0,0.00,0,0,0,0,33421,40531,2642,37602,0,0,0,0,0.00,0.00,0.00,0.00
2017-08-17 07:50:00,0,38092,0,0.00,0,0,0,0,31671,43970,4311,37696,0,0,0,0,0.00,0.00,0.00,0.00
2017-08-17 08:00:00,0,37956,0,0.00,0,0,0,0,33989,42280,2665,38146,0,0,0,0,0.00,0.00,0.00,0.00
2017-08-17 08:10:00,0,36194,0,0.00,0,0,0,0,28162,44652,4757,35780,0,0,0,0,0.00,0.00,0.00,0.00
2017-08-17 08:20:00,0,39007,0,0.00,0,0,0,0,29057,47590,5247,39900,0,0,0,0,0.00,0.00,0.00,0.00
2017-08-17 08:30:00,0,47133,0,0.00,0,0,0,0,42819,50000,2250,48026,0,0,0,0,0.00,0.00,0.00,0.00
2017-08-17 08:40:00,0,47760,0,0.00,0,0,0,0,42978,50000,2679,49209,0,0,0,0,0.00,0.00,0.00,0.00
2017-08-17 08:50:00,0,47871,0,0.00,0,0,0,0,39356,50000,3094,48958,0,0,0,0,0.00,0.00,0.00,0.00
2017-08-17 09:00:00,0,36005,0,0.00,0,0,0,0,31053,47093,4775,33818,0,0,0,0,0.00,0.00,0.00,0.00
2017-08-17 09:10:00,0,46595,0,0.00,0,0,0,0,34125,50000,4658,47896,0,0,0,0,0.00,0.00,0.00,0.00
2017-08-17 09:20:00,0,48466,0,0.00,0,0,0,0,41082,50000,2728,49942,0,0,0,0,0.00,0.00,0.00,0.00
2017-08-17 09:30:00,0,48865,0,0.00,0,0,0,0,45565,50000,1404,49410,0,0,0,0,0.00,0.00,0.00,0.00
2017-08-17 09:40:00,0,41831,0,0.00,0,0,0,0,37261,48828,3705,41012,0,0,0,0,0.00,0.00,0.00,0.00
2017-08-17 09:50:00,0,40998,0,0.00,0,0,0,0,37087,47557,2811,40628,0,0,0,0,0.00,0.00,0.00,0.00
2017-08-17 10:00:00,0,39645,0,0.00,0,0,0,0,30608,45096,5147,42265,0,0,0,0,0.00,0.00,0.00,0.00
2017-08-17 10:10:00,0,45274,0,0.00,0,0,0,0,37453,50000,3937,45860,0,0,0,0,0.00,0.00,0.00,0.00
2017-08-17 10:20:00,0,49028,0,0.00,0,0,0,0,46624,50000,981,49298,0,0,0,0,0.00,0.00,0.00,0.00
2017-08-17 10:30:00,0,46954,0,0.00,0,0,0,0,41986,50000,2482,46778,0,0,0,0,0.00,0.00,0.00,0.00
2017-08-17 10:40:00,0,43966,0,0.00,0,0,0,0,39085,50000,4402,42453,0,0,0,0,0.00,0.00,0.00,0.00
2017-08-17 10:50:00,0,41691,0,0.00,0,0,0,0,34118,49187,4390,42790,0,0,0,0,0.00,0.00,0.00,0.00
2017-08-17 11:00:00,0,49594,0,0.00,0,0,0,0,48624,50000,509,49959,0,0,0,0,0.00,0.00,0.00,0.00
2017-08-17 11:10:00,0,44460,0,0.00,0,0,0,0,37787,49924,3723,45132,0,0,0,0,0.00,0.00,0.00,0.00
2017-08-17 11:20:00,0,48297,0,0.00,0,0,0,0,39101,50000,3297,50000,0,0,0,0,0.00,0.00,0.00,0.00
2017-08-17 11:30:00,0,49156,0,0.00,0,0,0,0,44356,50000,1711,50000,0,0,0,0,0.00,0.00,0.00,0.00
2017-08-17 11:40:00,0,49441,0,0.00,0,0,0,0,45225,50000,1418,50000,0,0,0,0,0.00,0.00,0.00,0.00
2017-08-17 11:50:00,0,48180,0,0.00,0,0,0,0,42087,50000,2812,50000,0,0,0,0,0.00,0.00,0.00,0.00
2017-08-17 12:00:00,0,46676,0,0.00,0,0,0,0,42088,50000,2927,47492,0,0,0,0,0.00,0.00,0.00,0.00
2017-08-17 12:10:00,0,49490,0,0.00,0,0,0,0,47909,50000,671,49831,0,0,0,0,0.00,0.00,0.00,0.00
2017-08-17 12:20:00,0,47719,0,0.00,0,0,0,0,42064,50000,3000,49263,0,0,0,0,0.00,0.00,0.00,0.00
2017-08-17 12:30:00,0,46034,0,0.00,0,0,0,0,35941,50000,4565,48027,0,0,0,0,0.00,0.00,0.00,0.00
2017-08-17 12:40:00,0,49155,0,0.00,0,0,0,0,46994,50000,1077,49752,0,0,0,0,0.00,0.00,0.00,0.00
2017-08-17 12:50:00,0,47596,0,0.00,0,0,0,0,43518,50000,2213,48376,0,0,0,0,0.00,0.00,0.00,0.00
2017-08-17 13:00:00,0,46873,0,0.00,0,0,0,0,41703,50000,3141,47814,0,0,0,0,0.00,0.00,0.00,0.00
2017-08-17 13:10:00,0,48343,0,0.00,0,0,0,0,45193,50000,1752,48986,0,0,0,0,0.00,0.00,0.00,0.00
2017-08-17 13:20:00,0,46302,0,0.00,0,0,0,0,41778,50000,2534,46266,0,0,0,0,0.00,0.00,0.00,0.00
2017-08-17 13:30:00,0,48429,0,0.00,0,0,0,0,47108,50000,1015,48504,0,0,0,0,0.00,0.00,0.00,0.00
2017-08-17 13:40:00,0,48931,0,0.00,0,0,0,0,44495,50000,1647,49858,0,0,0,0,0.00,0.00,0.00,0.00
2017-08-17 13:50:00,0,45762,0,0.00,0,0,0,0,39756,50000,3536,46562,0,0,0,0,0.00,0.00,0.00,0.00
2017-08-17 14:00:00,0,48692,0,0.00,0,0,0,0,45885,50000,1636,49960,0,0,0,0,0.00,0.00,0.00,0.00
2017-08-17 14:10:00,0,46674,0,0.00,0,0,0,0,44528,50000,2011,46108,0,0,0,0,0.00,0.00,0.00,0.00
2017-08-17 14:20:00,0,47005,0,0.00,0,0,0,0,40761,50000,3549,48678,0,0,0,0,0.00,0.00,0.00,0.00
2017-08-17 14:30:00,0,44265,0,0.00,0,0,0,0,38353,50000,3844,43940,0,0,0,0,0.00,0.00,0.00,0.00
2017-08-17 14:40:00,0,47591,0,0.00,0,0,0,0,43838,50000,2037,48261,0,0,0,0,0.00,0.00,0.00,0.00
2017-08-17 14:50:00,0,47576,0,0.00,0,0,0,0,43494,50000,2240,48098,0,0,0,0,0.00,0.00,0.00,0.00
2017-08-17 15:00:00,0,46394,0,0.00,0,0,0,0,43073,50000,2496,46304,0,0,0,0,0.00,0.00,0.00,0.00
2017-08-17 15:10:00,0,47478,0,0.00,0,0,0,0,42004,50000,2816,48788,0,0,0,0,0.00,0.00,0.00,0.00
2017-08-17 15:20:00,0,47074,0,0.00,0,0,0,0,41322,50000,3091,48114,0,0,0,0,0.00,0.00,0.00,0.00
2017-08-17 15:30:00,0,46291,0,0.00,0,0,0,0,39315,50000,3916,47344,0,0,0,0,0.00,0.00,0.00,0.00
2017-08-17 15:40:00,0,45594,0,0.00,0,0,0,0,39406,50000,3300,45672,0,0,0,0,0.00,0.00,0.00,0.00
2017-08-17 15:50:00,0,48175,0,0.00,0,0,0,0,43659,50000,2102,48902,0,0,0,0,0.00,0.00,0.00,0.00
2017-08-17 16:00:00,0,46605,0,0.00,0,0,0,0,44197,50000,1903,45688,0,0,0,0,0.00,0.00,0.00,0.00
2017-08-17 16:10:00,0,47538,0,0.00,0,0,0,0,42356,50000,2678,48380,0,0,0,0,0.00,0.00,0.00,0.00
2017-08-17 16:20:00,0,47017,0,0.00,0,0,0,0,42793,50000,2940,48009,0,0,0,0,0.00,0.00,0.00,0.00
2017-08-17 16:30:00,0,43894,0,0.00,0,0,0,0,36911,50000,4213,43918,0,0,0,0,0.00,0.00,0.00,0.00
2017-08-17 16:40:00,0,42824,0,0.00,0,0,0,0,36554,48264,2951,42702,0,0,0,0,0.00,0.00,0.00,0.00
2017-08-17 16:50:00,0,45581,0,0.00,0,0,0,0,36662,50000,4114,46610,0,0,0,0,0.00,0.00,0.00,0.00
2017-08-17 17:00:00,0,41728,0,0.00,0,0,0,0,35250,49093,4145,41976,0,0,0,0,0.00,0.00,0.00,0.00
2017-08-17 17:10:00,0,44871,0,0.00,0,0,0,0,37953,49695,3693,44305,0,0,0,0,0.00,0.00,0.00,0.00
2017-08-17 17:20:00,0,46817,0,0.00,0,0,0,0,42131,50000,2791,46490,0,0,0,0,0.00,0.00,0.00,0.00
2017-08-17 17:30:00,0,49712,0,0.00,0,0,0,0,47501,50000,743,50000,0,0,0,0,0.00,0.00,0.00,0.00
2017-08-17 17:40:00,0,46078,0,0.00,0,0,0,0,42997,50000,2136,46050,0,0,0,0,0.00,0.00,0.00,0.00
2017-08-17 17:50:00,0,47424,0,0.00,0,0,0,0,40677,50000,3290,49620,0,0,0,0,0.00,0.00,0.00,0.00
2017-08-17 18:00:00,0,46126,0,0.00,0,0,0,0,38336,50000,3234,45967,0,0,0,0,0.00,0.00,0.00,0.00
2017-08-17 18:10:00,0,47042,0,0.00,0,0,0,0,43763,48668,1656,47889,0,0,0,0,0.00,0.00,0.00,0.00
2017-08-17 18:20:00,0,45635,0,0.00,0,0,0,0,40174,50000,3386,45238,0,0,0,0,0.00,0.00,0.00,0.00
2017-08-17 18:30:00,0,46218,0,0.00,0,0,0,0,40854,50000,3040,46555,0,0,0,0,0.00,0.00,0.00,0.00
2017-08-17 18:40:00,0,48314,0,0.00,0,0,0,0,45697,50000,1262,48173,0,0,0,0,0.00,0.00,0.00,0.00
2017-08-17 18:50:00,0,45380,0,0.00,0,0,0,0,37905,50000,3994,45954,0,0,0,0,0.00,0.00,0.00,0.00
2017-08-17 19:00:00,0,45121,0,0.00,0,0,0,0,40035,50000,3137,44618,0,0,0,0,0.00,0.00,0.00,0.00
2017-08-17 19:10:00,0,48023,0,0.00,0,0,0,0,39770,50000,3027,49574,0,0,0,0,0.00,0.00,0.00,0.00
2017-08-17 19:20:00,0,46410,0,0.00,0,0,0,0,42657,50000,2677,46180,0,0,0,0,0.00,0.00,0.00,0.00
2017-08-17 19:30:00,0,49417,0,0.00,0,0,0,0,47711,50000,747,49837,0,0,0,0,0.00,0.00,0.00,0.00
2017-08-17 19:40:00,0,48928,0,0.00,0,0,0,0,46604,50000,1297,49724,0,0,0,0,0.00,0.00,0.00,0.00
2017-08-17 19:50:00,0,49108,0,0.00,0,0,0,0,46849,50000,1169,49897,0,0,0,0,0.00,0.00,0.00,0.00
2017-08-17 20:00:00,0,46960,0,0.00,0,0,0,0,40958,50000,3390,48982,0,0,0,0,0.00,0.00,0.00,0.00
2017-08-17 20:10:00,0,47722,0,0.00,0,0,0,0,43915,50000,2276,48543,0,0,0,0,0.00,0.00,0.00,0.00
2017-08-17 20:20:00,0,45919,0,0.00,0,0,0,0,40379,50000,3326,46400,0,0,0,0,0.00,0.00,0.00,0.00
2017-08-17 20:30:00,0,47391,0,0.00,0,0,0,0,43939,50000,2148,47756,0,0,0,0,0.00,0.00,0.00,0.00
2017-08-17 20:40:00,0,44541,0,0.00,0,0,0,0,38621,49777,3499,44157,0,0,0,0,0.00,0.00,0.00,0.00
2017-08-17 20:50:00,0,48137,0,0.00,0,0,0,0,44191,50000,1925,48435,0,0,0,0,0.00,0.00,0.00,0.00
2017-08-17 21:00:00,0,46804,0,0.00,0,0,0,0,40284,50000,3053,47692,0,0,0,0,0.00,0.00,0.00,0.00
2017-08-17 21:10:00,0,47313,0,0.00,0,0,0,0,40749,50000,3000,48392,0,0,0,0,0.00,0.00,0.00,0.00
2017-08-17 21:20:00,0,47885,0,0.00,0,0,0,0,41378,50000,3348,49969,0,0,0,0,0.00,0.00,0.00,0.00
2017-08-17 21:30:00,0,48884,0,0.00,0,0,0,0,45113,50000,1860,50000,0,0,0,0,0.00,0.00,0.00,0.00
2017-08-17 21:40:00,0,46540,0,0.00,0,0,0,0,35770,50000,4924,49198,0,0,0,0,0.00,0.00,0.00,0.00
2017-08-17 21:50:00,0,45704,0,0.00,0,0,0,0,35792,50000,5170,48818,0,0,0,0,0.00,0.00,0.00,0.00
2017-08-17 22:00:00,0,48796,0,0.00,0,0,0,0,43234,50000,2242,50000,0,0,0,0,0.00,0.00,0.00,0.00
2017-08-17 22:10:00,0,41332,0,0.00,0,0,0,0,30804,50000,6153,40232,0,0,0,0,0.00,0.00,0.00,0.00
2017-08-17 22:20:00,0,42583,0,0.00,0,0,0,0,34285,50000,4945,43297,0,0,0,0,0.00,0.00,0.00,0.00
2017-08-17 22:30:00,0,45955,0,0.00,0,0,0,0,39182,50000,3045,45886,0,0,0,0,0.00,0.00,0.00,0.00
2017-08-17 22:40:00,0,49175,0,0.00,0,0,0,0,44422,50000,1636,50000,0,0,0,0,0.00,0.00,0.00,0.00
2017-08-17 22:50:00,0,47736,0,0.00,0,0,0,0,37372,50000,3932,50000,0,0,0,0,0.00,0.00,0.00,0.00
2017-08-17 23:00:00,0,47746,0,0.00,0,0,0,0,43513,50000,2597,49008,0,0,0,0,0.00,0.00,0.00,0.00
2017-08-17 23:10:00,0,43339,0,0.00,0,0,0,0,36483,47533,3436,44700,0,0,0,0,0.00,0.00,0.00,0.00
2017-08-17 23:20:00,0,43930,0,0.00,0,0,0,0,39323,50000,3584,43174,0,0,0,0,0.00,0.00,0.00,0.00
2017-08-17 23:30:00,0,47632,0,0.00,0,0,0,0,39939,50000,3150,48788,0,0,0,0,0.00,0.00,0.00,0.00
2017-08-17 23:40:00,1,42768,0,0.00,0,2,1,1,31087,50000,5573,44448,0,0,0,0,0.00,0.00,0.00,0.00
2017-08-17 23:50:00,0,41521,0,0.00,0,0,0,0,31923,48362,5603,41462,0,0,0,0,0.00,0.00,0.00,0.00
